When you browse on this site, cookies collect data to enhance your experience and personalize the content and advertising you see.
Visit our Privacy Policy to learn more. By continuing to use the site, you agree to this use of cookies and data.
  • en Belgique
  • Liste des pays
  • À 7 jours
  • Température de l'eau
  • Carte satellitaire
  • Carte météo
  • Widgets météo
  • user-avatar
    Se connecter

    Météo par heure à Sowiniec

    Ce jour, 19 Février, Mardi

    Heure Température Précipitation Vent Pression Humidité
    00:00 +2°C° 0 mm 3 m/s 745 mmHg 92%
    01:00 +2°C° 0 mm 3 m/s 745 mmHg 93%
    02:00 +1°C° 0 mm 3 m/s 744 mmHg 93%
    03:00 +1°C° 0 mm 3 m/s 744 mmHg 93%
    04:00 +1°C° 0 mm 3 m/s 744 mmHg 93%
    05:00 +1°C° 0 mm 3 m/s 744 mmHg 93%
    06:00 +1°C° 0 mm 3 m/s 743 mmHg 92%
    07:00 0°C° 0 mm 3 m/s 743 mmHg 90%
    08:00 0°C° 0 mm 3 m/s 743 mmHg 89%
    09:00 +2°C° 0 mm 3 m/s 743 mmHg 82%
    10:00 +3°C° 0 mm 3 m/s 743 mmHg 75%
    11:00 +5°C° 0 mm 4 m/s 743 mmHg 69%
    12:00 +6°C° 0 mm 4 m/s 742 mmHg 65%
    13:00 +7°C° 0 mm 4 m/s 742 mmHg 62%
    14:00 +10°C° 0 mm 4 m/s 742 mmHg 58%
    15:00 +8°C° 0 mm 4 m/s 741 mmHg 60%
    16:00 +8°C° 0 mm 4 m/s 741 mmHg 62%
    17:00 +9°C° 0 mm 3 m/s 740 mmHg 64%
    18:00 +7°C° 0 mm 4 m/s 740 mmHg 69%
    19:00 +5°C° 0 mm 4 m/s 740 mmHg 74%
    20:00 +4°C° 0 mm 4 m/s 740 mmHg 79%
    21:00 +3°C° 0 mm 5 m/s 740 mmHg 80%
    22:00 +3°C° 0 mm 5 m/s 740 mmHg 81%
    23:00 +3°C° 0 mm 5 m/s 740 mmHg 82%

    Demain, 20 Février, Mercredi

    Heure Température Précipitation Vent Pression Humidité
    00:00 +2°C° 0 mm 5 m/s 740 mmHg 83%
    01:00 +2°C° 0 mm 5 m/s 740 mmHg 84%
    02:00 +2°C° 0 mm 5 m/s 740 mmHg 85%
    03:00 +2°C° 0.3 mm 5 m/s 740 mmHg 86%
    04:00 +2°C° 0.3 mm 5 m/s 740 mmHg 87%
    05:00 +2°C° 0.3 mm 5 m/s 740 mmHg 89%
    06:00 +2°C° 0.1 mm 5 m/s 740 mmHg 90%
    07:00 +2°C° 0.1 mm 5 m/s 740 mmHg 91%
    08:00 +1°C° 0.1 mm 5 m/s 741 mmHg 92%
    09:00 +2°C° 0.1 mm 5 m/s 741 mmHg 88%
    10:00 +2°C° 0.1 mm 6 m/s 741 mmHg 85%
    11:00 +3°C° 0.1 mm 6 m/s 742 mmHg 82%
    12:00 +3°C° 0.1 mm 7 m/s 742 mmHg 77%
    13:00 +3°C° 0.1 mm 7 m/s 742 mmHg 73%
    14:00 +4°C° 0.1 mm 7 m/s 742 mmHg 68%
    15:00 +4°C° 0.1 mm 7 m/s 742 mmHg 68%
    16:00 +3°C° 0.1 mm 6 m/s 742 mmHg 69%
    17:00 +3°C° 0.1 mm 6 m/s 742 mmHg 69%
    18:00 +3°C° 0 mm 6 m/s 743 mmHg 71%
    19:00 +2°C° 0 mm 5 m/s 743 mmHg 74%
    20:00 +1°C° 0 mm 5 m/s 743 mmHg 77%
    21:00 +2°C° 0 mm 5 m/s 743 mmHg 77%
    22:00 +2°C° 0 mm 5 m/s 744 mmHg 78%
    23:00 +2°C° 0 mm 5 m/s 744 mmHg 78%

    Après-demain, 21 Février, Jeudi

    Heure Température Précipitation Vent Pression Humidité
    00:00 +2°C° 0 mm 5 m/s 744 mmHg 78%
    01:00 +2°C° 0 mm 5 m/s 744 mmHg 79%
    02:00 +2°C° 0 mm 5 m/s 744 mmHg 79%
    03:00 +2°C° 0 mm 5 m/s 744 mmHg 79%
    04:00 +2°C° 0 mm 5 m/s 744 mmHg 80%
    05:00 +2°C° 0 mm 5 m/s 744 mmHg 81%
    06:00 +2°C° 0 mm 5 m/s 744 mmHg 84%
    07:00 +2°C° 0 mm 5 m/s 744 mmHg 88%
    08:00 +2°C° 0 mm 5 m/s 744 mmHg 91%
    09:00 +2°C° 0.1 mm 5 m/s 744 mmHg 86%
    10:00 +3°C° 0.1 mm 6 m/s 744 mmHg 81%
    11:00 +4°C° 0.1 mm 6 m/s 744 mmHg 76%
    12:00 +4°C° 0.2 mm 6 m/s 744 mmHg 77%
    13:00 +4°C° 0.2 mm 6 m/s 744 mmHg 77%
    14:00 +4°C° 0.2 mm 6 m/s 743 mmHg 78%
    15:00 +4°C° 0.2 mm 6 m/s 743 mmHg 80%
    16:00 +4°C° 0.2 mm 6 m/s 743 mmHg 82%
    17:00 +3°C° 0.2 mm 6 m/s 742 mmHg 85%
    18:00 +3°C° 1 mm 6 m/s 742 mmHg 87%
    19:00 +3°C° 1 mm 6 m/s 742 mmHg 89%
    20:00 +3°C° 1 mm 6 m/s 742 mmHg 91%
    21:00 +3°C° 1 mm 5 m/s 742 mmHg 92%
    22:00 +3°C° 1 mm 5 m/s 742 mmHg 92%
    23:00 +4°C° 1 mm 4 m/s 742 mmHg 93%

    22 Février, Vendredi

    Heure Température Précipitation Vent Pression Humidité
    00:00 +4°C° 0.6 mm 4 m/s 743 mmHg 94%
    01:00 +4°C° 0.6 mm 4 m/s 743 mmHg 94%
    02:00 +4°C° 0.6 mm 4 m/s 743 mmHg 94%
    03:00 +1°C° 0.5 mm 5 m/s 744 mmHg 91%
    04:00 -2°C° 0.5 mm 6 m/s 744 mmHg 88%
    05:00 -3°C° 0.5 mm 6 m/s 745 mmHg 85%
    06:00 -4°C° 0.1 mm 7 m/s 746 mmHg 81%
    07:00 -4°C° 0.1 mm 7 m/s 747 mmHg 77%
    08:00 -6°C° 0.1 mm 7 m/s 748 mmHg 72%
    09:00 -6°C° 0 mm 7 m/s 749 mmHg 69%
    10:00 -4°C° 0 mm 6 m/s 751 mmHg 65%
    11:00 -4°C° 0 mm 6 m/s 752 mmHg 62%
    12:00 -4°C° 0 mm 6 m/s 752 mmHg 60%
    13:00 -4°C° 0 mm 6 m/s 753 mmHg 58%
    14:00 -4°C° 0 mm 6 m/s 754 mmHg 56%
    15:00 -4°C° 0 mm 6 m/s 754 mmHg 54%
    16:00 -5°C° 0 mm 6 m/s 755 mmHg 53%
    17:00 -5°C° 0 mm 6 m/s 755 mmHg 51%
    18:00 -5°C° 0 mm 5 m/s 756 mmHg 51%
    19:00 -6°C° 0 mm 5 m/s 757 mmHg 51%
    20:00 -5°C° 0 mm 4 m/s 757 mmHg 51%
    21:00 -5°C° 0 mm 4 m/s 758 mmHg 50%
    22:00 -5°C° 0 mm 4 m/s 758 mmHg 49%
    23:00 -5°C° 0 mm 4 m/s 759 mmHg 48%

    23 Février, Samedi

    Heure Température Précipitation Vent Pression Humidité
    00:00 -5°C° 0 mm 4 m/s 759 mmHg 47%
    01:00 -5°C° 0 mm 4 m/s 759 mmHg 46%
    02:00 -5°C° 0 mm 3 m/s 759 mmHg 45%
    03:00 -5°C° 0 mm 3 m/s 759 mmHg 45%
    04:00 -5°C° 0 mm 3 m/s 759 mmHg 45%
    05:00 -5°C° 0 mm 3 m/s 758 mmHg 46%
    06:00 -5°C° 0 mm 3 m/s 759 mmHg 45%
    07:00 -5°C° 0 mm 3 m/s 759 mmHg 45%
    08:00 -5°C° 0 mm 3 m/s 759 mmHg 44%
    09:00 -4°C° 0 mm 3 m/s 759 mmHg 39%
    10:00 -2°C° 0 mm 3 m/s 758 mmHg 34%
    11:00 -1°C° 0 mm 3 m/s 758 mmHg 29%
    12:00 -1°C° 0 mm 3 m/s 758 mmHg 31%
    13:00 -1°C° 0 mm 3 m/s 757 mmHg 33%
    14:00 -2°C° 0 mm 4 m/s 757 mmHg 34%
    15:00 -3°C° 0 mm 4 m/s 756 mmHg 41%
    16:00 -3°C° 0 mm 4 m/s 755 mmHg 48%
    17:00 -3°C° 0 mm 4 m/s 755 mmHg 55%
    18:00 -3°C° 0.1 mm 4 m/s 755 mmHg 56%
    19:00 -2°C° 0.1 mm 3 m/s 754 mmHg 56%
    20:00 -2°C° 0.1 mm 3 m/s 754 mmHg 57%
    21:00 -2°C° 0 mm 3 m/s 754 mmHg 55%
    22:00 -2°C° 0 mm 2 m/s 754 mmHg 53%
    23:00 -2°C° 0 mm 2 m/s 754 mmHg 51%

    24 Février, Dimanche

    Heure Température Précipitation Vent Pression Humidité
    00:00 -2°C° 0 mm 2 m/s 754 mmHg 55%
    01:00 -2°C° 0 mm 2 m/s 753 mmHg 59%
    02:00 -3°C° 0 mm 2 m/s 753 mmHg 62%
    03:00 -3°C° 0 mm 2 m/s 753 mmHg 66%
    04:00 -3°C° 0 mm 2 m/s 753 mmHg 69%
    05:00 -1°C° 0 mm 1 m/s 753 mmHg 73%
    06:00 -3°C° 0 mm 2 m/s 753 mmHg 75%
    07:00 -3°C° 0 mm 2 m/s 753 mmHg 77%
    08:00 -3°C° 0 mm 2 m/s 753 mmHg 78%
    09:00 -1°C° 0 mm 2 m/s 753 mmHg 77%
    10:00 +1°C° 0 mm 2 m/s 753 mmHg 76%
    11:00 +1°C° 0 mm 3 m/s 753 mmHg 74%
    12:00 +1°C° 0 mm 3 m/s 753 mmHg 78%
    13:00 +2°C° 0 mm 3 m/s 752 mmHg 82%
    14:00 +2°C° 0 mm 3 m/s 752 mmHg 86%
    15:00 +2°C° 0 mm 3 m/s 751 mmHg 88%
    16:00 +2°C° 0 mm 3 m/s 751 mmHg 90%
    17:00 +2°C° 0 mm 3 m/s 750 mmHg 92%
    18:00 +1°C° 0 mm 3 m/s 750 mmHg 93%
    19:00 +1°C° 0 mm 3 m/s 749 mmHg 94%
    20:00 0°C° 0 mm 3 m/s 749 mmHg 95%
    21:00 -1°C° 0 mm 4 m/s 748 mmHg 95%
    22:00 -1°C° 0 mm 4 m/s 748 mmHg 95%
    23:00 -1°C° 0 mm 4 m/s 747 mmHg 95%
    Voir plus